Weather History for Smyrna, TN

Change the Weather History Date:

Sunday, February 17, 2013

  Actual Average Record
Temperature  
Mean Temperature 32 °F -  
Max Temperature 46 °F 50 °F 69 °F (2008)
Min Temperature 17 °F 35 °F 17 °F (2013)
Degree Days  
Heating Degree Days 34    
Moisture  
Dew Point 17 °F    
Average Humidity 58    
Maximum Humidity 92    
Minimum Humidity 29    
Precipitation  
Precipitation 0.00 in - - ()
Sea Level Pressure  
Sea Level Pressure 30.29 in    
Wind  
Wind Speed 1 mph (West)    
Max Wind Speed 9 mph    
Max Gust Speed -    
Visibility 10 miles    
Events      
Averages and records for this station are not official NWS values.
T = Trace of Precipitation, MM = Missing Value Source: NWS Daily Summary

Daily Weather History Graph

Daily Weather History Graph

Search for Another Location

Airport:

Trip Planner

Search our weather history database for the weather conditions in past years. The results will help you decide how hot, cold, wet, or windy it might be!

Date:

Astronomy

Feb. 17, 2013 Rise Set
Actual Time 6:30 AM CST 5:29 PM CST
Civil Twilight 6:04 AM CST 5:55 PM CST
Nautical Twilight 5:34 AM CST 6:25 PM CST
Astronomical Twilight 5:05 AM CST 6:55 PM CST
Moon 10:38 AM CST (2/17) 12:10 AM CST (2/17)
Length of Visible Light 11h 51m
Length of Day
10h 59m
Waxing Crescent, 49% of the Moon is Illuminated
Feb 17
Waxing Crescent
Feb 17
First Quarter
Feb 25
Full
Mar 4
Last Quarter
Mar 11
New

Hourly Weather History & Observations

Time (CST) Temp. Windchill Dew Point Humidity Pressure Visibility Wind Dir Wind Speed Gust Speed Precip Events Conditions
12:56 AM 19.0 °F - 14.0 °F 81% 30.27 in 10.0 mi Calm Calm - N/A   Clear
1:56 AM 19.0 °F - 15.1 °F 85% 30.27 in 10.0 mi Calm Calm - N/A   Clear
2:56 AM 18.1 °F - 15.1 °F 88% 30.27 in 10.0 mi Calm Calm - N/A   Clear
3:56 AM 17.1 °F - 13.1 °F 84% 30.28 in 10.0 mi Calm Calm - N/A   Clear
4:56 AM 17.1 °F - 15.1 °F 92% 30.29 in 10.0 mi Calm Calm - N/A   Clear
6:56 AM 17.1 °F - 15.1 °F 92% 30.33 in 10.0 mi Calm Calm - N/A   Clear
7:56 AM 23.0 °F - 17.1 °F 78% 30.35 in 10.0 mi Calm Calm - N/A   Clear
8:56 AM 30.0 °F - 18.1 °F 61% 30.36 in 10.0 mi Calm Calm - N/A   Clear
9:56 AM 36.9 °F 33.1 °F 18.1 °F 47% 30.36 in 10.0 mi Variable 4.6 mph - N/A   Clear
10:56 AM 39.9 °F 37.8 °F 17.1 °F 40% 30.35 in 10.0 mi ENE 3.5 mph - N/A   Clear
11:56 AM 41.9 °F 36.9 °F 14.0 °F 32% 30.33 in 10.0 mi WNW 8.1 mph - N/A   Partly Cloudy
12:56 PM 45.0 °F 40.1 °F 14.0 °F 29% 30.30 in 10.0 mi WNW 9.2 mph - N/A   Partly Cloudy
1:56 PM 45.9 °F 42.3 °F 16.2 °F 30% 30.27 in 10.0 mi WSW 6.9 mph - N/A   Clear
2:56 PM 45.0 °F 42.6 °F 16.2 °F 32% 30.27 in 10.0 mi WSW 4.6 mph - N/A   Mostly Cloudy
3:56 PM 46.9 °F - 16.2 °F 29% 30.26 in 10.0 mi Calm Calm - N/A   Overcast
4:56 PM 43.0 °F - 17.1 °F 35% 30.26 in 10.0 mi Calm Calm - N/A   Scattered Clouds
5:56 PM 41.0 °F - 18.1 °F 40% 30.25 in 10.0 mi Calm Calm - N/A   Partly Cloudy
6:56 PM 34.9 °F - 22.1 °F 60% 30.26 in 10.0 mi Calm Calm - N/A   Clear
7:56 PM 34.9 °F - 20.1 °F 55% 30.26 in 10.0 mi Calm Calm - N/A   Clear
8:56 PM 34.9 °F - 20.1 °F 55% 30.26 in 10.0 mi Calm Calm - N/A   Clear
9:56 PM 32.9 °F - 21.0 °F 62% 30.26 in 10.0 mi Calm Calm - N/A   Clear
10:56 PM 32.0 °F - 21.0 °F 64% 30.25 in 10.0 mi Calm Calm - N/A   Clear
11:56 PM 32.0 °F - 21.0 °F 64% 30.25 in 10.0 mi Calm Calm - N/A   Clear